Regional Weather Roundup
Issued by NWS

Home | Current Version | Previous Version | Graphics & Text | Print | Product List | Glossary On
Versions: 1 2 3 4 5 6 7 8 9 10 11 12 13 14 15 16 17 18 19 20 21 22 23 24 25 26 27 28 29 30 31 32 33 34 35 36 37 38 39 40 41 42 43 44 45 46 47 48 49 50
000
ASUS43 KFSD 290102
RWRSD

WEATHER ROUNDUP FOR SOUTH DAKOTA
NATIONAL WEATHER SERVICE SIOUX FALLS SD
800 PM CDT FRI AUG 28 2015

NOTE: "FAIR" INDICATES FEW OR NO CLOUDS BELOW 12,000 FEET WITH NO
SIGNIFICANT WEATHER AND/OR OBSTRUCTIONS TO VISIBILITY.


SDZ001>005-009-010-012>017-290200-
NORTHWEST AND NORTH CENTRAL SOUTH DAKOTA

CITY           SKY/WX    TMP DP  RH WIND       PRES   REMARKS
BUFFALO          N/A     79  53  40 W6        29.94S
MOBRIDGE       PTCLDY    76  70  82 SE8       29.90S
$$

SDZ012>016-024>037-041>051-057-063-072>074-290200-
SOUTHWEST AND SOUTH CENTRAL SOUTH DAKOTA

CITY           SKY/WX    TMP DP  RH WIND       PRES   REMARKS
RAPID CTY ARPT PTCLDY    78  64  61 CALM      30.03S
PIERRE         CLEAR     75  68  78 SE7       29.94S
CUSTER         CLEAR     73  49  42 SE3       30.21R
ELLSWORTH AFB  PTCLDY    79  61  54 S3        30.03S
PHILIP         CLEAR     78  65  63 SE6       29.97S
PINE RIDGE     CLEAR     75  57  53 SE6       30.05S
WINNER         FAIR      74  65  73 SE6       29.99S
$$

SDZ004>011-016>023-039-040-290200-
NORTHEAST SOUTH DAKOTA

CITY           SKY/WX    TMP DP  RH WIND       PRES   REMARKS
ABERDEEN       CLEAR     72  66  81 S6        29.94R
WATERTOWN      CLEAR     70  62  76 S8        29.98R
BROOKINGS      CLEAR     68  61  77 E6        30.01S
$$

SDZ017-020-022-023-036>040-048>070-290200-
SOUTHEAST SOUTH DAKOTA

CITY           SKY/WX    TMP DP  RH WIND       PRES   REMARKS
SIOUX FALLS    CLOUDY    65  59  81 E9        29.99R
HURON          CLEAR     74  66  76 SE8       29.95R
CHAMBERLAIN    CLEAR     71  67  85 CALM      29.98S
MITCHELL       CLEAR     70  66  87 SE6       29.97R
YANKTON        CLEAR     66  61  82 NE6       29.96R
$$

ABBREVIATIONS USED IN REMARKS
   TC - TEMPERATURE IN CELSIUS
  WCI - WIND CHILL INDEX
   HX - HEAT INDEX
  VSB - VISIBILITY




USA.gov is the U.S. government's official web portal to all federal, state and local government web resources and services.